Regional Weather Roundup
Issued by NWS

Home | Current Version | Previous Version | Text Only | Print | Product List | Glossary Off
Versions: 1 2 3 4 5 6 7 8 9 10 11 12 13 14 15 16 17 18 19 20 21 22 23 24 25 26 27 28 29 30 31 32 33 34 35 36 37 38 39 40 41 42 43 44 45 46 47 48 49 50

000
ASUS45 KBOI 231710
RWRID
WEATHER ROUNDUP FOR IDAHO
NATIONAL WEATHER SERVICE BOISE ID
1100 AM MDT WED JUL 23 2014

NOTE: "FAIR" INDICATES FEW OR NO CLOUDS BELOW 12000 FEET
WITH NO SIGNIFICANT WEATHER AND/OR OBSTRUCTIONS TO VISIBILITY

IDZ012-014-231800-
SOUTHWEST IDAHO


CITY           SKY/WX    TMP DP  RH WIND       PRES   REMARKS
BOISE          MOSUNNY   78  54  43 CALM      30.06F
CALDWELL       MOSUNNY   73  54  49 E5        30.07F
MOUNTAIN HOME  MOSUNNY   80  49  33 N2        30.06F
$$

IDZ016-017-231800-
SOUTHCENTRAL IDAHO


CITY           SKY/WX    TMP DP  RH WIND       PRES   REMARKS
BURLEY         MOSUNNY   80  50  34 VRB5      30.13F
JEROME         SUNNY     76  53  44 NW5       30.14F
TWIN FALLS     SUNNY     82  47  29 W7        30.13F
$$

IDZ019>023-231800-
SOUTHEAST IDAHO


CITY           SKY/WX    TMP DP  RH WIND       PRES   REMARKS
IDAHO FALLS    MOSUNNY   77  51  40 SW12      30.20S
POCATELLO      SUNNY     79  48  33 VRB6      30.19F
REXBURG        MOSUNNY   76  50  40 SW12      30.20S
$$

IDZ006-010-011-018-031-032-231800-
CENTRAL IDAHO MOUNTAINS


CITY           SKY/WX    TMP DP  RH WIND       PRES   REMARKS
MCCALL         SUNNY     71  49  45 S9        30.15F
HAILEY         MOSUNNY   72  52  49 SE7       30.23S
STANLEY          N/A     67  47  48 CALM      30.28F
SALMON         MOSUNNY   70  52  52 N5        30.16F
CHALLIS        MOSUNNY   72  45  37 VRB3      30.22F
$$

IDZ002-004-006-007-026-231800-
NORTHERN IDAHO


CITY           SKY/WX    TMP DP  RH WIND       PRES   REMARKS
LEWISTON       SUNNY     80  57  45 SE14      29.92F
LOWELL           N/A     77  59  53 N5        29.95F
COEUR D`ALENE  SUNNY     73  59  60 E12       29.99F
MULLAN PASS    SUNNY     61  53  75 VRB6      30.18F
$$



USA.gov is the U.S. government's official web portal to all federal, state and local government web resources and services.